TimeEDT,TemperatureF,Dew PointF,Humidity,Sea Level PressureIn,VisibilityMPH,Wind Direction,Wind SpeedMPH,Gust SpeedMPH,PrecipitationIn,Events,Conditions,WindDirDegrees,DateUTC
12:53 AM,78.1,75.0,90,30.01,10.0,SE,8.1,-,N/A,,Clear,130,2012-09-17 04:53:00
1:53 AM,78.1,75.9,93,30.01,10.0,ESE,10.4,-,N/A,,Clear,110,2012-09-17 05:53:00
2:53 AM,78.1,75.0,90,29.99,10.0,ESE,9.2,-,N/A,,Clear,120,2012-09-17 06:53:00
3:53 AM,78.1,75.9,93,29.97,10.0,ESE,10.4,-,N/A,,Clear,120,2012-09-17 07:53:00
4:53 AM,78.1,75.9,93,29.96,10.0,ESE,8.1,-,N/A,,Clear,110,2012-09-17 08:53:00
5:53 AM,78.1,75.9,93,29.97,10.0,ESE,11.5,-,N/A,,Clear,120,2012-09-17 09:53:00
6:53 AM,77.0,75.9,96,29.97,10.0,ESE,13.8,-,N/A,,Clear,120,2012-09-17 10:53:00
8:53 AM,79.0,75.9,90,29.99,10.0,SE,12.7,-,N/A,,Clear,140,2012-09-17 12:53:00
9:53 AM,81.0,77.0,88,29.99,10.0,SSE,10.4,-,N/A,,Clear,150,2012-09-17 13:53:00
10:53 AM,84.0,75.9,76,29.99,10.0,South,11.5,-,N/A,,Clear,170,2012-09-17 14:53:00
11:53 AM,84.9,75.0,72,29.98,10.0,SSE,10.4,-,N/A,,Clear,160,2012-09-17 15:53:00
12:53 PM,87.1,75.9,69,29.96,10.0,SSE,9.2,-,N/A,,Clear,160,2012-09-17 16:53:00
1:53 PM,88.0,75.0,65,29.95,10.0,South,9.2,-,N/A,,Clear,180,2012-09-17 17:53:00
2:53 PM,87.1,73.9,65,29.92,10.0,SW,9.2,-,N/A,,Scattered Clouds,230,2012-09-17 18:53:00
3:53 PM,84.9,75.0,72,29.90,10.0,SSW,9.2,-,0.04,,Partly Cloudy,200,2012-09-17 19:53:00
4:53 PM,87.1,75.0,67,29.89,10.0,SSW,9.2,-,N/A,,Clear,200,2012-09-17 20:53:00
5:53 PM,84.0,75.9,76,29.89,10.0,SW,11.5,-,N/A,,Clear,230,2012-09-17 21:53:00
6:53 PM,84.0,77.0,79,29.90,10.0,SSW,10.4,-,N/A,,Partly Cloudy,210,2012-09-17 22:53:00
7:53 PM,82.9,78.1,85,29.89,10.0,South,13.8,-,N/A,,Mostly Cloudy,190,2012-09-17 23:53:00
8:01 PM,82.4,78.8,89,29.89,10.0,SSW,15.0,-,N/A,,Mostly Cloudy,200,2012-09-18 00:01:00
8:10 PM,82.4,78.8,89,29.90,10.0,SSW,11.5,-,0.00,Rain,Light Rain,200,2012-09-18 00:10:00
8:53 PM,82.0,77.0,85,29.91,10.0,South,10.4,-,0.00,,Clear,190,2012-09-18 00:53:00
9:53 PM,81.0,78.1,91,29.94,10.0,South,8.1,-,N/A,,Clear,170,2012-09-18 01:53:00
10:53 PM,80.1,77.0,90,29.95,10.0,South,13.8,-,N/A,,Partly Cloudy,170,2012-09-18 02:53:00
11:53 PM,80.1,78.1,94,29.94,10.0,South,12.7,-,N/A,,Clear,170,2012-09-18 03:53:00